This demonstration page uses our WeatherBlox Daily Observations layout. Learn more.

Left ArrowRight Arrow

39.51506, -84.39828

Hourly Observations for July 24, 2021

Temp ( °F °C ) Dew Point ( °F °C ) Humidity (%) Winds ( mph kmh ) Pressure ( in mb ) Visibility ( mi km ) Precip ( " mm )
12:15 am 00:15 Clear 66 19 66 19 100 100 N N/A 30.11 1020 10 16 N/A
12:35 am 00:35 Clear 66 19 N/A N/A NW 3 6 30.11 1020 10 16 N/A
12:55 am 00:55 Clear 66 19 N/A N/A N N/A 30.11 1020 10 16 N/A
1:15 am 01:15 Clear 66 19 N/A N/A NW 3 6 30.10 1019 10 16 N/A
1:35 am 01:35 Clear 66 19 N/A N/A N N/A 30.10 1019 10 16 N/A
1:55 am 01:55 Clear 64 18 N/A N/A N N/A 30.09 1019 10 16 N/A
2:15 am 02:15 Clear 64 18 N/A N/A N N/A 30.08 1019 10 16 N/A
2:35 am 02:35 Clear 64 18 N/A N/A N N/A 30.08 1019 10 16 N/A
2:55 am 02:55 Clear 64 18 N/A N/A N N/A 30.07 1018 10 16 N/A
3:15 am 03:15 Clear 64 18 N/A N/A N N/A 30.07 1018 7 11 N/A
3:35 am 03:35 Clear 64 18 N/A N/A N N/A 30.07 1018 10 16 N/A
3:55 am 03:55 Clear 63 17 N/A N/A N N/A 30.07 1018 10 16 N/A
4:15 am 04:15 Hazy 63 17 N/A N/A NNW 3 6 30.07 1018 7 11 N/A
4:35 am 04:35 Hazy 63 17 N/A N/A N N/A 30.07 1018 7 11 N/A
4:55 am 04:55 Clear 63 17 N/A N/A N N/A 30.07 1018 7 11 N/A
5:15 am 05:15 Clear with Mist and Fog 63 17 N/A N/A N N/A 30.07 1018 4 6 N/A
5:35 am 05:35 Mostly Cloudy with Mist and Fog 63 17 N/A N/A N N/A 30.07 1018 2 2 N/A
5:55 am 05:55 Mostly Cloudy with Mist and Fog 63 17 N/A N/A N N/A 30.07 1018 1 1 N/A
6:15 am 06:15 Mostly Cloudy with Mist and Fog 63 17 N/A N/A N N/A 30.06 1018 1 1 N/A
6:35 am 06:35 Mostly Cloudy with Fog 61 16 N/A N/A N N/A 30.07 1018 1 1 N/A
6:55 am 06:55 Sunny with Mist and Fog 61 16 N/A N/A N N/A 30.07 1018 3 4 N/A
7:15 am 07:15 Sunny with Mist and Fog 63 17 N/A N/A N N/A 30.07 1018 3 4 N/A
7:35 am 07:35 Hazy 64 18 N/A N/A N N/A 30.07 1018 5 8 N/A
7:55 am 07:55 Sunny 66 19 N/A N/A WSW 3 6 30.07 1018 7 11 N/A
8:15 am 08:15 Sunny 68 20 N/A N/A WSW 3 6 30.06 1018 10 16 N/A
8:35 am 08:35 Sunny 69 20.7 67 19.4 92 92 WSW 3 6 30.06 1018 10 16 N/A
8:55 am 08:55 Sunny 71 21.7 67 19.7 88 88 WSW 6 9 30.06 1018 10 16 N/A
9:15 am 09:15 Sunny 72 22.3 66 19.1 82 82 SW 6 9 30.06 1018 10 16 N/A
9:35 am 09:35 Sunny 74 23.3 67 19.5 79 79 SW 7 11 30.06 1018 10 16 N/A
9:55 am 09:55 Sunny 75 24 67 19.7 77 77 SW 6 9 30.06 1018 10 16 N/A
10:15 am 10:15 Sunny 77 24.8 67 19.7 73 73 SSW 7 11 30.05 1018 10 16 N/A
10:35 am 10:35 Sunny 77 25.2 67 19.3 70 70 SW 6 9 30.05 1018 10 16 N/A
10:55 am 10:55 Sunny 79 26 67 19.6 68 68 SW 7 11 30.05 1018 10 16 N/A
11:15 am 11:15 Sunny 80 26.4 68 19.8 67 67 SW 9 15 30.04 1017 10 16 N/A
11:35 am 11:35 Sunny 80 26.9 68 19.9 66 66 SW 8 13 30.04 1017 10 16 N/A
11:55 am 11:55 Sunny 81 27.4 69 20.3 65 65 SW 10 17 30.04 1017 10 16 N/A
12:15 pm 12:15 Sunny 82 27.8 69 20.7 65 65 SW 8 13 30.04 1017 10 16 N/A
12:35 pm 12:35 Sunny 82 28 70 20.9 65 65 SSW 6 9 30.04 1017 10 16 N/A
12:55 pm 12:55 Partly Cloudy 83 28.4 71 21.5 66 66 SSW 9 15 30.03 1017 10 16 N/A
1:15 pm 13:15 Sunny 84 29.1 70 21 62 62 WSW 8 13 30.01 1016 10 16 N/A
1:35 pm 13:35 Partly Cloudy 84 28.9 69 20.6 61 61 SW 7 11 30.01 1016 10 16 N/A
1:55 pm 13:55 Sunny 84 29.1 70 21.1 62 62 SSW 9 15 30.00 1016 10 16 N/A
2:15 pm 14:15 Partly Cloudy 85 29.4 71 21.4 62 62 SW 10 17 30.00 1016 10 16 N/A
2:35 pm 14:35 Partly Cloudy 85 29.7 70 20.9 59 59 SW 8 13 29.99 1016 10 16 N/A
2:50 pm 14:50 Sunny 86 29.8 70 20.9 59 59 WSW 9 15 29.98 1015 10 16 N/A
3:15 pm 15:15 Partly Cloudy 86 29.8 70 21 59 59 SSW 12 19 29.97 1015 10 16 N/A
3:35 pm 15:35 Sunny 87 30.3 70 21.2 58 58 SW 8 13 29.97 1015 10 16 N/A
3:55 pm 15:55 Sunny 87 30.7 71 21.5 58 58 SW 10 17 29.96 1015 10 16 N/A
4:15 pm 16:15 Partly Cloudy 86 30.1 70 21.2 59 59 SW 14 22 29.95 1014 10 16 N/A
4:35 pm 16:35 Sunny 87 30.5 70 21.1 57 57 SW 14 22 29.94 1014 10 16 N/A
4:55 pm 16:55 Sunny 87 30.7 70 21 56 56 WSW 12 19 29.94 1014 10 16 N/A
5:15 pm 17:15 Sunny 88 30.9 71 21.4 57 57 SW 10 17 29.93 1014 10 16 N/A
5:35 pm 17:35 Sunny 87 30.4 69 20.6 56 56 WSW 10 17 29.93 1014 7 11 N/A
5:55 pm 17:55 Sunny 87 30.5 69 20.7 56 56 SW 12 19 29.92 1013 10 16 N/A
6:15 pm 18:15 Sunny 87 30.3 70 21.2 58 58 WSW 14 22 29.93 1014 10 16 N/A
6:35 pm 18:35 Sunny 86 30 70 21.1 59 59 SW 10 17 29.92 1013 10 16 N/A
6:55 pm 18:55 Sunny 86 29.8 71 21.4 61 61 SW 13 20 29.90 1013 10 16 N/A
7:15 pm 19:15 Sunny 84 29.1 70 21.3 63 63 SW 10 17 29.90 1013 10 16 N/A
7:35 pm 19:35 Mostly Cloudy 84 29 71 21.5 64 64 SW 10 17 29.90 1013 10 16 N/A
7:55 pm 19:55 Sunny 83 28.6 70 21.2 64 64 SW 12 19 29.92 1013 10 16 N/A
8:15 pm 20:15 Partly Cloudy 82 27.8 71 21.5 69 69 SW 12 19 29.92 1013 10 16 N/A
8:35 pm 20:35 Mostly Cloudy 82 27.6 71 21.7 70 70 WSW 8 13 29.91 1013 10 16 N/A
8:55 pm 20:55 Partly Cloudy 80 26.9 71 21.9 74 74 SW 9 15 29.91 1013 10 16 N/A
9:15 pm 21:15 Clear 79 26.2 72 22 78 78 SW 9 15 29.90 1013 10 16 N/A
9:35 pm 21:35 Clear 78 25.8 72 22 80 80 SW 8 13 29.90 1013 10 16 N/A
9:55 pm 21:55 Clear 78 25.7 72 22.1 81 81 SW 9 15 29.90 1013 10 16 N/A
10:15 pm 22:15 Partly Cloudy 77 25.2 72 22.2 84 84 W 5 7 29.91 1013 10 16 N/A
10:35 pm 22:35 Partly Cloudy 77 25.1 72 22.4 85 85 SW 7 11 29.91 1013 10 16 N/A
10:55 pm 22:55 Partly Cloudy 76 24.7 72 22.3 87 87 WSW 6 9 29.92 1013 10 16 N/A
11:15 pm 23:15 Clear 75 24.1 72 22.4 90 90 WSW 6 9 29.93 1013 10 16 N/A
11:35 pm 23:35 Clear 76 24.6 72 22.4 88 88 WSW 5 7 29.93 1014 10 16 N/A
11:55 pm 23:55 Clear 76 24.3 72 22.3 89 89 SW 7 11 29.92 1013 10 16 N/A

Powered by AerisWeather